Regional Weather Roundup
Issued by NWS

Home | Current Version | Previous Version | Graphics & Text | Print | Product List | Glossary On
Versions: 1 2 3 4 5 6 7 8 9 10 11 12 13 14 15 16 17 18 19 20 21 22 23 24 25 26 27 28 29 30 31 32 33 34 35 36 37 38 39 40 41 42 43 44 45 46 47 48 49 50
000
ASUS43 KFSD 260602
RWRSD

WEATHER ROUNDUP FOR SOUTH DAKOTA
NATIONAL WEATHER SERVICE SIOUX FALLS SD
100 AM CDT SUN APR 26 2015

NOTE: "FAIR" INDICATES FEW OR NO CLOUDS BELOW 12,000 FEET WITH NO
SIGNIFICANT WEATHER AND/OR OBSTRUCTIONS TO VISIBILITY.


SDZ001>005-009-010-012>017-260700-
NORTHWEST AND NORTH CENTRAL SOUTH DAKOTA

CITY           SKY/WX    TMP DP  RH WIND       PRES   REMARKS
BUFFALO          N/A     43  40  89 NW9       29.85S
FAITH            N/A     49  46  90 NE3       29.88R
MOBRIDGE       CLOUDY    52  43  71 SE20      29.89S
$$

SDZ012>016-024>037-041>051-057-063-072>074-260700-
SOUTHWEST AND SOUTH CENTRAL SOUTH DAKOTA

CITY           SKY/WX    TMP DP  RH WIND       PRES   REMARKS
RAPID CTY ARPT CLOUDY    46  42  86 N17       29.87S
PIERRE         CLOUDY    53  45  74 SE8       29.89R
CUSTER         CLOUDY    43  41  93 NE7       29.87S
ELLSWORTH AFB  LGT RAIN  45  43  91 N18       29.87
PHILIP         CLOUDY    52  46  80 E8        29.86S
PINE RIDGE     CLOUDY    47  44  90 N5        29.82F
WINNER         MOCLDY    50  44  80 E8        29.88F
$$

SDZ004>011-016>023-039-040-260700-
NORTHEAST SOUTH DAKOTA

CITY           SKY/WX    TMP DP  RH WIND       PRES   REMARKS
ABERDEEN       CLOUDY    51  42  71 E7        29.96R
WATERTOWN      CLOUDY    45  39  79 CALM      29.97R
BROOKINGS      CLEAR     43  37  81 CALM      29.98R
SISSETON         N/A     42  40  92 CALM      29.99R
$$

SDZ017-020-022-023-036>040-048>070-260700-
SOUTHEAST SOUTH DAKOTA

CITY           SKY/WX    TMP DP  RH WIND       PRES   REMARKS
SIOUX FALLS    PTCLDY    45  37  73 E6        29.96R
HURON          PTCLDY    50  40  68 SE12      29.94R
MITCHELL       PTCLDY    49  43  80 SE6       29.95R
YANKTON        CLOUDY    52  39  62 E10       29.94S
$$

ABBREVIATIONS USED IN REMARKS
   TC - TEMPERATURE IN CELSIUS
  WCI - WIND CHILL INDEX
   HX - HEAT INDEX
  VSB - VISIBILITY



USA.gov is the U.S. government's official web portal to all federal, state and local government web resources and services.